Powrót do katalogu

STARLINK-34204

AktywnyŁącznośćVLEO
NORAD 66213·PAYLOAD·🇺🇸 United States

Wystrzelony Oct 28, 2025 z Vandenberg Space Force Base

Loading…

Następne Przeloty (najbliższe 24 godziny)

TLE

ŚwieżeSource: CelesTrak SupGP

Epoka: Sep 15, 2026, 02:31 UTC

1 66213C 25244H   26258.10534722 -.00028944  00000+0 -85520-3 0  2581
2 66213  53.1584  67.1632 0001193  79.7391 195.6847 15.34403901    12

Śledź STARLINK-34204 w czasie rzeczywistym z AllMySat

Download on the App Store